KD5NDU-15 Weather Reports


time (UTC)temp
F
wind
direction
speed
knots
gust
knots
rain 1hr
in
rain 24hr
in
rain mn
in
humidity
%
barometer
mb
20260901133638 81 212 0.9 1.7 0.00 0.00 0.00 85 1019.6
20260901133138 80 217 0.9 1.7 0.00 0.00 0.00 87 1019.6
20260901132638 79 217 0.9 2.6 0.00 0.00 0.00 89 1019.5
20260901132138 78 217 0.9 2.6 0.00 0.00 0.00 90 1019.5
20260901131638 77 217 0.9 2.6 0.00 0.00 0.00 92 1019.4
20260901131138 77 217 0.9 2.6 0.00 0.00 0.00 92 1019.4
20260901130638 76 217 0.9 0.0 0.00 0.00 0.00 94 1019.3
20260901130138 75 216 0.9 3.5 0.00 0.00 0.00 94 1019.2
20260901125638 75 214 0.0 2.6 0.00 0.00 0.00 94 1019.2
20260901125138 74 163 0.0 0.0 0.00 0.00 0.00 94 1019.2
20260901124638 73 163 0.0 0.0 0.00 0.00 0.00 95 1019.2
20260901124138 73 163 0.0 0.0 0.00 0.00 0.00 94 1019.3
20260901123638 73 163 0.0 0.0 0.00 0.00 0.00 95 1019.3
20260901123138 72 163 0.0 0.0 0.00 0.00 0.00 95 1019.2
20260901122638 72 163 0.0 0.0 0.00 0.00 0.00 95 1019.2
20260901122138 72 163 0.0 0.0 0.00 0.00 0.00 95 1019.2
20260901121638 72 163 0.0 0.0 0.00 0.00 0.00 95 1019.1
20260901121138 72 163 0.0 0.0 0.00 0.00 0.00 95 1019.0
20260901120638 71 163 0.0 0.0 0.00 0.00 0.00 95 1019.1
20260901120138 71 165 0.0 0.0 0.00 0.00 0.00 95 1019.0
20260901115638 71 165 0.0 0.0 0.00 0.00 0.00 95 1018.9
20260901115138 71 165 0.0 0.0 0.00 0.00 0.00 95 1018.8
20260901114638 71 165 0.0 0.0 0.00 0.00 0.00 95 1018.9
20260901114138 71 165 0.0 0.0 0.00 0.00 0.00 95 1018.8
20260901113638 71 165 0.0 0.9 0.00 0.00 0.00 95 1018.8
20260901113138 71 163 0.0 0.0 0.00 0.00 0.00 95 1018.7
20260901112638 71 163 0.0 0.0 0.00 0.00 0.00 95 1018.7
20260901112138 71 163 0.0 0.0 0.00 0.00 0.00 95 1018.6
20260901111638 71 163 0.0 0.0 0.00 0.00 0.00 95 1018.7
20260901111138 71 109 0.0 0.0 0.00 0.00 0.00 95 1018.5
20260901110638 71 109 0.0 0.0 0.00 0.00 0.00 94 1018.6
20260901110138 71 109 0.0 0.9 0.00 0.00 0.00 94 1018.5
20260901105639 72 108 0.0 0.0 0.00 0.00 0.00 94 1018.4
20260901105138 72 108 0.0 0.9 0.00 0.00 0.00 94 1018.4
20260901104639 72 102 0.0 0.0 0.00 0.00 0.00 94 1018.4
20260901104138 73 101 0.0 0.0 0.00 0.00 0.00 93 1018.3
20260901103639 74 101 0.0 0.0 0.00 0.00 0.00 93 1018.2
20260901103139 74 101 0.0 0.0 0.00 0.00 0.00 93 1018.2
20260901102639 74 102 0.0 0.0 0.00 0.00 0.00 93 1018.0
20260901102139 74 102 0.0 0.0 0.00 0.00 0.00 93 1018.1
20260901101639 74 104 0.0 0.0 0.00 0.00 0.00 93 1018.0
20260901101139 74 103 0.0 0.0 0.00 0.00 0.00 93 1018.0
20260901100639 74 104 0.0 0.0 0.00 0.00 0.00 93 1017.9
20260901100139 74 104 0.0 0.0 0.00 0.00 0.00 92 1018.0
20260901095639 74 103 0.0 0.0 0.00 0.00 0.00 92 1017.9
20260901095139 74 104 0.0 0.0 0.00 0.00 0.00 92 1017.9
20260901094639 74 103 0.0 0.0 0.00 0.00 0.00 91 1017.8
20260901094139 75 104 0.0 0.0 0.00 0.00 0.00 91 1017.9
20260901093639 75 104 0.0 1.7 0.00 0.00 0.00 91 1017.8
20260901093139 75 103 0.0 2.6 0.00 0.00 0.00 92 1018.0
20260901092639 75 126 0.0 1.7 0.00 0.00 0.00 92 1017.8
20260901092139 74 136 0.0 0.9 0.00 0.00 0.00 92 1017.8
20260901091639 74 136 0.0 0.9 0.00 0.00 0.00 92 1017.9
20260901091139 75 136 0.0 0.9 0.00 0.00 0.00 91 1017.7
20260901090639 75 136 0.0 0.0 0.00 0.00 0.00 91 1017.6
20260901090139 75 136 0.0 0.0 0.00 0.00 0.00 91 1017.7
20260901085639 75 136 0.0 0.0 0.00 0.00 0.00 91 1017.6
20260901085139 76 136 0.0 0.0 0.00 0.00 0.00 90 1017.6
20260901084639 76 136 0.0 0.0 0.00 0.00 0.00 90 1017.6
20260901084139 76 136 0.0 0.0 0.00 0.00 0.00 90 1017.6
20260901083639 76 136 0.0 0.0 0.00 0.00 0.00 90 1017.7
20260901083139 76 136 0.0 0.9 0.00 0.00 0.00 90 1017.6
20260901082639 76 136 0.0 0.9 0.00 0.00 0.00 90 1017.6
20260901082139 76 136 0.0 0.9 0.00 0.00 0.00 91 1017.6
20260901081639 76 136 0.0 0.9 0.00 0.00 0.00 90 1017.6
20260901081139 76 136 0.0 0.0 0.00 0.00 0.00 90 1017.6
20260901080639 76 136 0.0 0.0 0.00 0.00 0.00 90 1017.6
20260901080139 76 136 0.0 0.9 0.00 0.00 0.00 90 1017.6
20260901075639 76 138 0.0 2.6 0.00 0.00 0.00 91 1017.7
20260901075139 75 120 0.0 1.7 0.00 0.00 0.00 91 1017.6
20260901074639 75 143 0.0 1.7 0.00 0.00 0.00 92 1017.6
20260901074139 75 141 0.0 2.6 0.00 0.00 0.00 92 1017.5
20260901073639 75 147 0.0 0.9 0.00 0.00 0.00 92 1017.6
20260901073139 75 147 0.0 1.7 0.00 0.00 0.00 92 1017.6
20260901072639 75 120 0.0 0.0 0.00 0.00 0.00 92 1017.7
20260901072139 75 119 0.0 0.0 0.00 0.00 0.00 92 1017.6
20260901071639 75 113 0.0 0.0 0.00 0.00 0.00 91 1017.6
20260901071139 76 113 0.0 0.0 0.00 0.00 0.00 90 1017.5
20260901070639 76 113 0.0 0.0 0.00 0.00 0.00 90 1017.4
20260901070139 76 113 0.0 0.9 0.00 0.00 0.00 90 1017.4
20260901065639 76 113 0.0 0.9 0.00 0.00 0.00 89 1017.5
20260901065139 76 113 0.0 0.0 0.00 0.00 0.00 89 1017.5
20260901064639 77 113 0.0 0.0 0.00 0.00 0.00 88 1017.6
20260901064139 77 113 0.0 0.9 0.00 0.00 0.00 87 1017.6
20260901063639 78 113 0.0 0.9 0.00 0.00 0.00 87 1017.6
20260901063139 78 113 0.9 1.7 0.00 0.00 0.00 87 1017.7
20260901062639 78 59 0.9 1.7 0.00 0.00 0.00 87 1017.7
20260901062139 78 85 0.9 2.6 0.00 0.00 0.00 87 1017.7
20260901061639 78 115 0.9 2.6 0.00 0.00 0.00 86 1017.7
20260901061139 78 93 0.9 1.7 0.00 0.00 0.00 86 1017.6
20260901060639 78 96 0.9 2.6 0.00 0.00 0.00 86 1017.6
20260901060139 78 85 0.9 2.6 0.00 0.00 0.00 87 1017.6
20260901055639 78 98 0.0 2.6 0.00 0.00 0.00 87 1017.4
20260901055139 78 74 0.0 1.7 0.00 0.00 0.00 87 1017.4
20260901054639 77 72 0.0 0.0 0.00 0.00 0.00 87 1017.6
20260901054139 77 143 0.0 0.0 0.00 0.00 0.00 87 1017.6
20260901053639 77 143 0.0 1.7 0.00 0.00 0.00 87 1017.6
20260901053139 78 143 0.0 0.0 0.00 0.00 0.00 87 1017.6
20260901052639 78 143 0.0 0.9 0.00 0.00 0.00 86 1017.6
20260901052139 78 143 0.0 0.0 0.00 0.00 0.00 86 1017.7
20260901051639 78 143 0.0 1.7 0.00 0.00 0.00 85 1017.6
20260901051139 78 145 0.0 1.7 0.00 0.00 0.00 86 1017.7
20260901050639 78 148 0.0 0.9 0.00 0.00 0.00 85 1017.5
20260901050139 78 148 0.0 0.0 0.00 0.00 0.00 85 1017.6
20260901045639 78 148 0.0 0.0 0.00 0.00 0.00 85 1017.5
20260901045139 78 148 0.0 0.0 0.00 0.00 0.00 85 1017.4
20260901044639 79 148 0.0 0.0 0.00 0.00 0.00 84 1017.5
20260901044139 79 148 0.0 0.0 0.00 0.00 0.00 84 1017.5
20260901043639 79 148 0.0 0.0 0.00 0.00 0.00 83 1017.4
20260901043139 79 148 0.0 0.9 0.00 0.00 0.00 83 1017.4
20260901042639 80 148 0.0 0.9 0.00 0.00 0.00 82 1017.5
20260901042139 80 148 0.0 1.7 0.00 0.00 0.00 82 1017.5
20260901041639 80 161 0.0 1.7 0.00 0.00 0.00 82 1017.4
20260901041139 81 161 0.0 0.9 0.00 0.00 0.00 80 1017.6
20260901040639 81 161 0.0 0.9 0.00 0.00 0.00 80 1017.5
20260901040139 81 141 0.9 1.7 0.00 0.00 0.00 79 1017.4
20260901035639 82 167 0.9 2.6 0.00 0.00 0.00 79 1017.5
20260901035139 82 155 0.9 2.6 0.00 0.00 0.00 78 1017.5
20260901034639 82 153 0.9 1.7 0.00 0.00 0.00 78 1017.6
20260901034139 82 151 0.9 3.5 0.00 0.00 0.00 77 1017.6
20260901033639 82 150 0.9 2.6 0.00 0.00 0.00 77 1017.6
20260901033139 82 102 0.9 2.6 0.00 0.00 0.00 77 1017.6
20260901032639 82 146 0.9 2.6 0.00 0.00 0.00 77 1017.5
20260901032139 82 107 0.9 2.6 0.00 0.00 0.00 77 1017.6
20260901031639 82 106 0.9 2.6 0.00 0.00 0.00 78 1017.7
20260901031139 82 105 0.0 3.5 0.00 0.00 0.00 78 1017.6
20260901030639 82 149 0.0 2.6 0.00 0.00 0.00 78 1017.6
20260901030139 83 168 0.9 1.7 0.00 0.00 0.00 77 1017.7
20260901025639 83 168 0.0 1.7 0.00 0.00 0.00 77 1017.7
20260901025139 83 168 0.0 1.7 0.00 0.00 0.00 77 1017.6
20260901024639 84 168 0.0 0.9 0.00 0.00 0.00 76 1017.7
20260901024139 84 168 0.0 1.7 0.00 0.00 0.00 76 1017.7
20260901023639 84 170 0.9 2.6 0.00 0.00 0.00 75 1017.6
20260901023139 84 194 0.0 1.7 0.00 0.00 0.00 75 1017.5
20260901022639 84 188 0.0 0.9 0.00 0.00 0.00 74 1017.5
20260901022139 85 188 0.0 0.0 0.00 0.00 0.00 74 1017.5
20260901021639 85 188 0.9 1.7 0.00 0.00 0.00 73 1017.6
20260901021139 85 171 0.9 2.6 0.00 0.00 0.00 73 1017.5
20260901020639 85 195 0.9 2.6 0.00 0.00 0.00 73 1017.6
20260901020139 85 193 1.7 3.5 0.00 0.00 0.00 73 1017.6
20260901015639 85 198 0.9 1.7 0.00 0.00 0.00 73 1017.5
20260901015139 85 201 0.0 1.7 0.00 0.00 0.00 73 1017.4
20260901014639 85 201 0.0 1.7 0.00 0.00 0.00 73 1017.2
20260901014139 86 203 0.0 0.0 0.00 0.00 0.00 72 1017.2
20260901013639 86 203 0.9 1.7 0.00 0.00 0.00 72 1017.1
20260901013139 86 203 0.9 1.7 0.00 0.00 0.00 71 1017.1
20260901012639 86 203 0.0 2.6 0.00 0.00 0.00 71 1017.1
20260901012139 86 202 0.0 0.0 0.00 0.00 0.00 71 1017.1
20260901011639 86 202 0.0 0.0 0.00 0.00 0.00 71 1017.1
20260901011139 87 202 0.0 0.0 0.00 0.00 0.00 70 1017.1
20260901010639 87 202 0.0 0.0 0.00 0.00 0.00 69 1017.1
20260901010139 87 202 0.0 0.9 0.00 0.00 0.00 69 1017.0
20260901005639 87 202 0.0 1.7 0.00 0.00 0.00 68 1017.1
20260901005139 88 202 0.0 0.9 0.00 0.00 0.00 67 1017.0
20260901004639 88 202 0.0 0.9 0.00 0.00 0.00 67 1017.0
20260901004139 88 202 0.0 0.9 0.00 0.00 0.00 66 1017.0
20260901003639 88 202 0.0 0.9 0.00 0.00 0.00 66 1016.9
20260901003139 89 201 0.0 1.7 0.00 0.00 0.00 65 1016.8
20260901002639 89 201 0.9 2.6 0.00 0.00 0.00 64 1016.9
20260901002139 89 211 0.9 2.6 0.00 0.00 0.00 63 1016.8
20260901001639 90 210 0.9 2.6 0.00 0.00 0.00 62 1016.7
20260901001139 90 198 0.0 1.7 0.00 0.00 0.00 61 1016.8
20260901000639 91 164 0.9 1.7 0.00 0.00 0.00 60 1016.8
20260901000139 91 156 0.9 1.7 0.00 0.00 0.00 59 1016.8
20260831235639 91 155 0.9 1.7 0.00 0.00 0.00 60 1016.9
20260831235139 92 205 0.9 3.5 0.00 0.00 0.00 59 1016.7
20260831234639 92 187 0.0 1.7 0.00 0.00 0.00 59 1016.7
20260831234139 92 187 0.0 0.9 0.00 0.00 0.00 58 1016.7
20260831233639 93 187 0.9 1.7 0.00 0.00 0.00 58 1016.7
20260831233139 93 192 0.9 1.7 0.00 0.00 0.00 57 1016.7
20260831232639 94 191 0.9 2.6 0.00 0.00 0.00 58 1016.6
20260831232139 94 175 0.9 2.6 0.00 0.00 0.00 57 1016.6
20260831231639 94 145 0.9 3.5 0.00 0.00 0.00 57 1016.7
20260831231139 94 124 1.7 3.5 0.00 0.00 0.00 58 1016.7
20260831230639 94 160 1.7 3.5 0.00 0.00 0.00 57 1016.8
20260831230139 94 212 1.7 3.5 0.00 0.00 0.00 57 1016.7
20260831225639 94 154 2.6 4.3 0.00 0.00 0.00 58 1016.8
20260831225139 95 193 1.7 5.2 0.00 0.00 0.00 57 1016.7
20260831224639 95 180 0.9 3.5 0.00 0.00 0.00 58 1016.7
20260831224139 95 151 0.9 3.5 0.00 0.00 0.00 57 1016.7
20260831223639 95 88 0.9 5.2 0.00 0.00 0.00 58 1016.7
20260831223139 95 203 0.9 3.5 0.00 0.00 0.00 58 1016.7
20260831222639 95 165 1.7 3.5 0.00 0.00 0.00 58 1016.8
20260831222139 95 88 0.9 4.3 0.00 0.00 0.00 57 1016.7
20260831221639 96 183 1.7 2.6 0.00 0.00 0.00 57 1016.7
20260831221139 95 181 2.6 3.5 0.00 0.00 0.00 56 1016.8
20260831220639 95 75 1.7 4.3 0.00 0.00 0.00 57 1016.9
20260831220139 95 86 0.9 5.2 0.00 0.00 0.00 57 1016.9
20260831215639 95 159 0.9 2.6 0.00 0.00 0.00 59 1016.9
20260831215139 94 106 1.7 3.5 0.00 0.00 0.00 57 1017.0
20260831214639 95 128 1.7 4.3 0.00 0.00 0.00 58 1017.0
20260831214139 95 147 1.7 5.2 0.00 0.00 0.00 57 1017.0
20260831213639 95 224 1.7 4.3 0.00 0.00 0.00 56 1017.0
20260831213139 96 183 1.7 4.3 0.00 0.00 0.00 55 1017.0
20260831212639 96 211 1.7 3.5 0.00 0.00 0.00 54 1017.0
20260831212139 95 223 1.7 3.5 0.00 0.00 0.00 55 1017.0
20260831211640 96 251 2.6 4.3 0.00 0.00 0.00 54 1017.1
20260831211139 97 211 2.6 6.1 0.00 0.00 0.00 53 1017.3
20260831210640 97 202 2.6 6.1 0.00 0.00 0.00 53 1017.4
20260831210140 97 251 1.7 5.2 0.00 0.00 0.00 54 1017.4
20260831205640 96 206 0.9 4.3 0.00 0.00 0.00 54 1017.3
20260831205140 96 231 1.7 2.6 0.00 0.00 0.00 55 1017.4
20260831204640 95 127 1.7 2.6 0.00 0.00 0.00 55 1017.4
20260831204140 94 201 1.7 3.5 0.00 0.00 0.00 57 1017.4
20260831203640 94 191 1.7 5.2 0.00 0.00 0.00 58 1017.4
20260831203140 93 193 1.7 4.3 0.00 0.00 0.00 58 1017.3
20260831202640 93 232 0.9 3.5 0.00 0.00 0.00 58 1017.4
20260831202140 93 210 0.9 2.6 0.00 0.00 0.00 60 1017.5
20260831201640 93 209 0.9 1.7 0.00 0.00 0.00 60 1017.6
20260831201140 93 208 0.9 1.7 0.00 0.00 0.00 62 1017.6
20260831200640 93 207 0.9 2.6 0.00 0.00 0.00 60 1017.6
20260831200140 94 61 0.0 0.9 0.00 0.00 0.00 60 1017.8
20260831195640 95 61 0.9 1.7 0.00 0.00 0.00 58 1017.9
20260831195140 95 61 0.0 0.9 0.00 0.00 0.00 63 1018.0
20260831194640 95 61 0.0 1.7 0.00 0.00 0.00 62 1018.0
20260831194140 94 61 0.0 0.9 0.00 0.00 0.00 62 1018.1
20260831193640 93 62 0.0 1.7 0.00 0.00 0.00 61 1018.1
20260831193140 93 60 0.0 1.7 0.00 0.00 0.00 61 1018.2
20260831192640 93 60 0.9 1.7 0.00 0.00 0.00 63 1018.1
20260831192140 93 61 0.9 1.7 0.00 0.00 0.00 63 1018.2
20260831191640 92 81 0.9 2.6 0.00 0.00 0.00 63 1018.2
20260831191140 93 153 0.9 3.5 0.00 0.00 0.00 63 1018.3
20260831190640 93 154 1.7 2.6 0.00 0.00 0.00 63 1018.3
20260831190140 93 181 0.9 3.5 0.00 0.00 0.00 63 1018.3
20260831185640 93 190 0.9 2.6 0.00 0.00 0.00 64 1018.4
20260831185140 92 167 0.9 3.5 0.00 0.00 0.00 64 1018.3
20260831184640 92 149 1.7 2.6 0.00 0.00 0.00 64 1018.5
20260831184140 92 162 0.9 3.5 0.00 0.00 0.00 63 1018.4
20260831183640 92 210 0.0 2.6 0.00 0.00 0.00 63 1018.6
20260831183140 92 190 0.0 1.7 0.00 0.00 0.00 64 1018.7
20260831182640 92 193 0.9 1.7 0.00 0.00 0.00 63 1018.7
20260831182140 92 193 0.9 1.7 0.00 0.00 0.00 64 1018.7
20260831181640 92 193 1.7 2.6 0.00 0.00 0.00 63 1018.8
20260831181140 93 207 1.7 4.3 0.00 0.00 0.00 63 1018.9
20260831180640 93 181 2.6 3.5 0.00 0.00 0.00 62 1019.0
20260831180140 93 182 3.5 6.1 0.00 0.00 0.00 62 1019.1
20260831175640 93 176 2.6 7.0 0.00 0.00 0.00 62 1019.1
20260831175140 93 192 1.7 6.1 0.00 0.00 0.00 63 1019.2
20260831174640 92 293 2.6 4.3 0.00 0.00 0.00 64 1019.4
20260831174140 92 262 3.5 5.2 0.00 0.00 0.00 66 1019.3
20260831173640 93 250 3.5 9.6 0.00 0.00 0.00 63 1019.4
20260831173140 94 236 2.6 7.0 0.00 0.00 0.00 62 1019.6
20260831172640 92 280 2.6 5.2 0.00 0.00 0.00 65 1019.5
20260831172140 92 194 1.7 5.2 0.00 0.00 0.00 64 1019.5
20260831171640 91 176 1.7 3.5 0.00 0.00 0.00 66 1019.6
20260831171140 91 152 1.7 3.5 0.00 0.00 0.00 66 1019.6
20260831170640 91 212 0.9 4.3 0.00 0.00 0.00 66 1019.8
20260831170140 90 245 0.9 1.7 0.00 0.00 0.00 67 1019.9
20260831165640 91 246 0.9 2.6 0.00 0.00 0.00 66 1020.0
20260831165140 90 248 0.0 2.6 0.00 0.00 0.00 67 1020.0
20260831164640 90 249 0.0 1.7 0.00 0.00 0.00 68 1020.0
20260831164140 90 249 0.9 1.7 0.00 0.00 0.00 70 1020.0
20260831163640 90 205 0.9 1.7 0.00 0.00 0.00 69 1020.1
20260831163140 90 206 1.7 3.5 0.00 0.00 0.00 70 1020.1
20260831162640 90 174 2.6 4.3 0.00 0.00 0.00 69 1020.1
20260831162140 90 234 2.6 5.2 0.00 0.00 0.00 69 1020.2
20260831161640 91 256 2.6 7.0 0.00 0.00 0.00 68 1020.1
20260831161140 91 186 3.5 6.1 0.00 0.00 0.00 67 1020.1
20260831160640 91 245 3.5 7.8 0.00 0.00 0.00 67 1020.2
20260831160140 91 168 3.5 7.8 0.00 0.00 0.00 66 1020.2
20260831155640 91 214 3.5 7.0 0.00 0.00 0.00 67 1020.2
20260831155140 91 226 2.6 7.0 0.00 0.00 0.00 69 1020.3
20260831154640 90 226 2.6 4.3 0.00 0.00 0.00 70 1020.2
20260831154140 91 251 2.6 5.2 0.00 0.00 0.00 69 1020.3
20260831153640 91 252 2.6 7.0 0.00 0.00 0.00 69 1020.3
20260831153140 91 226 1.7 4.3 0.00 0.00 0.00 68 1020.1
20260831152640 91 229 0.9 3.5 0.00 0.00 0.00 69 1020.2
20260831152140 90 262 1.7 4.3 0.00 0.00 0.00 70 1020.1
20260831151640 89 254 2.6 6.1 0.00 0.00 0.00 72 1020.1
20260831151140 89 214 1.7 5.2 0.00 0.00 0.00 71 1020.0
20260831150640 89 247 1.7 4.3 0.00 0.00 0.00 72 1020.1
20260831150140 89 202 1.7 3.5 0.00 0.00 0.00 74 1020.0
20260831145640 89 172 2.6 6.1 0.00 0.00 0.00 74 1020.1
20260831145140 89 200 1.7 5.2 0.00 0.00 0.00 73 1020.2
20260831144640 89 233 0.9 5.2 0.00 0.00 0.00 73 1020.0
20260831144140 88 278 0.9 1.7 0.00 0.00 0.00 75 1020.0
20260831143640 88 278 0.9 2.6 0.00 0.00 0.00 75 1019.8
20260831143140 87 288 0.9 1.7 0.00 0.00 0.00 77 1019.8
20260831142640 87 285 0.9 1.7 0.00 0.00 0.00 78 1019.8
20260831142140 86 259 0.9 2.6 0.00 0.00 0.00 78 1019.9
20260831141640 85 242 0.9 3.5 0.00 0.00 0.00 79 1019.9
20260831141140 85 219 1.7 3.5 0.00 0.00 0.00 81 1019.8
20260831140640 84 205 1.7 3.5 0.00 0.00 0.00 81 1019.9
20260831140140 84 207 0.9 3.5 0.00 0.00 0.00 81 1019.9
20260831135640 83 211 1.7 2.6 0.00 0.00 0.00 82 1019.8
20260831135140 83 208 1.7 3.5 0.00 0.00 0.00 81 1019.8
20260831134640 82 193 1.7 2.6 0.00 0.00 0.00 83 1019.9
20260831134140 82 199 1.7 2.6 0.00 0.00 0.00 83 1019.8